"Pseudo-MPEC" for C5QP0A2

Created 2021 Jun 13 1:07:14 UT using Find_Orb

Click here for an explanation of pseudo-MPECs

 
 Astrometry: 
     C5QP0A2  C2021 06 08.39430421 08 13.98 -00 54 37.4    ~68A7 20.93GVNEOCPG96
     C5QP0A2  C2021 06 08.40011921 08 15.20 -00 54 38.0    ~68A7 22.42GVNEOCPG96
     C5QP0A2  C2021 06 08.40593921 08 16.42 -00 54 39.5    ~68A7 21.48GVNEOCPG96
     C5QP0A2  C2021 06 08.41176121 08 17.61 -00 54 41.7    ~68A7 21.25GVNEOCPG96
     C5QP0A2 mC2021 06 08.44328221 08 24.09 -00 54 50.3    ~68B7 21.54GVNEOCPG96
     C5QP0A2 mC2021 06 08.44752421 08 24.96 -00 54 51.6    ~68B7 21.34GVNEOCPG96
     C5QP0A2 mC2021 06 08.45124521 08 25.75 -00 54 52.8    ~68B7 21.08GVNEOCPG96
     C5QP0A2 |C2021 06 11DroQN;-B9ypVaMMRViptutXfjd,Astrometry[M5%F^0Ny=plp5b807
     C5QP0A2 |C2021 06 11Mv6T(FwxtrLR_qpERDZ1DArq^Bc.W%[-;65;3g5`:Aye8D=\XNZv807
     C5QP0A2 |C2021 06 11IRG-redacted;t0;,5Q9+A)F.p6HdW!OIEF_WN?-wqT*FRTclick807
     C5QP0A2 KC2021 06 11.38674021 18 52.94 -01 10 47.1    ~6B9q 21.10GVNEOCPG96
     C5QP0A2 KC2021 06 11.38795921 18 53.18 -01 10 47.5    ~6B9q 20.98GVNEOCPG96
     C5QP0A2 KC2021 06 11.38917621 18 53.43 -01 10 48.0    ~6B9q 20.99GVNEOCPG96
     C5QP0A2 bC2021 06 12+E9N94yO7ca8m089poh5#eaWJ-v$9*c^wig6W@@heren)'-PkEDaL01
     C5QP0A2 bC2021 06 12:fwq+^for)/EY3^=PB:?c*w)JEg+R=wQa^F'5=3MFBrY0Vv`SjuWL01
     C5QP0A2 bC2021 06 12yg+/*(`F@,MV$:]$]V^mf4Ss%3jDjyGW^0;fp;-WC=[]_@0CgQXAL01
     C5QP0A2 bC2021 06 12J7.n7S^jToOd1oZV7#sLaN2[8/#CgxH$,o_!:9JCW58lo]?B0ZJBL01
     C5QP0A2 KC2021 06 12p=Qs`sq.Q#%G=Z;0*^h@vZ6E=/BMDlI:/!gJN^X%;]L2=AC%1BVEH21
     C5QP0A2 KC2021 06 122!ACje6mYynFIB^\HsN2kJ/mOti+?Ua\P*ptsONBPQ43@haIURsdH21
     C5QP0A2 KC2021 06 12yH_B.XwonMSNC(HMVD#-b7u)\explanation,[h%yg'8ciq`^?glH21

Station data:
(807) Cerro Tololo Observatory, La Serena  (S30.169136 W70.805900)  Chile.
(G96) Mt. Lemmon Survey  (N32.442754 W110.788720)  US/Arizona.  Observers T.
   A. Pruyne, B. M. Africano, E. J. Christensen, G. A. Farneth, D. C. Fuls,
   A. R. Gibbs, A. D. Grauer, H. Gröller, J. A. Johnson, R. A. Kowalski, S.
   M. Larson, G. J. Leonard, D. Rankin, R. L. Seaman, F. C. Shelly. 1.5-m
   reflector + 10K CCD.
(H21) Astronomical Research Observatory, Westfield  (N39.483057 W87.968270)
   US/Illinois. 0.76-m f/3.0 astrograph + CCD.
(L01) Višnjan Observatory, Tičan  (N45.290900 E13.749300)  Croatia.
   Observers K. Korlević, E. Pettarin. Measurer E. Pettarin. 1.0-m f/2.9
   reflector + CCD.

Orbital elements:  C5QP0A2
   Perihelion 2021 Jun 17.857329 +/- 0.0871678 TT = 20:34:33 (JD 2459383.357329)
Epoch 2021 Jun 12.0 TT = JDT 2459377.5   Earth MOID: 0.1969   Ma: 0.0692
M 358.11979606 +/- 0.0425504        (J2000 ecliptic)          AutoNEOCP
n   0.32100022 +/- 0.00504615       Peri.  160.20961 +/- 0.0991888
a   2.11251187 +/- 0.0221378        Node   119.39875 +/- 0.0896725
e   0.4284721 +/- 0.00523574        Incl.    8.85159 +/- 0.0514968
P   3.07                   H 21.5   G  0.15   U  9.2  
q 1.20735936 +/- 0.00162568    Q 3.01766439 +/- 0.043197
From 20 observations 2021 June 8-12; mean residual 0".25
Residuals in arcseconds: 
210608 G96  .16-  .69-    210611 807  .19-  .48-    210612 L01  .07+  .04-    
210608 G96  .09+  .34+    210611 807  .12-  .11+    210612 L01  .66-  .43+    
210608 G96  .33+  .46+    210611 807  .27+  .17+    210612 L01  .18-  .11-    
210608 G96  .13+  .11-    210611 G96  .21+  .11+    210612 H21  .20+  .01-    
210608 G96  .22-  .10+    210611 G96  .08+  .16+    210612 H21  .18+  .19-    
210608 G96  .28-  .01-    210611 G96  .11+  .11+    210612 H21  .19+  .08-    
210608 G96  .07+  .17-    210612 L01  .25-  .11-    

Ephemerides (geocentric):
Date (UTC) HH   RA              Dec         delta   r     elong  mag " sig PA
---- -- -- --  -------------   -----------  ------ ------ -----  --- ---- ---
2021 06 13 01  21 24 41.033   -01 21 29.84  .33295 1.2084 118.0 21.3 .108  66
2021 06 13 02  21 24 49.770   -01 21 47.51  .33286 1.2084 118.0 21.3 .111  63
2021 06 13 03  21 24 58.506   -01 22 05.23  .33278 1.2083 118.1 21.3 .115  61
2021 06 13 04  21 25 07.239   -01 22 23.00  .33270 1.2083 118.1 21.3 .119  58
2021 06 13 05  21 25 15.970   -01 22 40.83  .33262 1.2083 118.1 21.3 .123  56
2021 06 13 06  21 25 24.698   -01 22 58.72  .33254 1.2083 118.1 21.3 .128  54
2021 06 13 07  21 25 33.424   -01 23 16.66  .33246 1.2083 118.1 21.3 .133  52
2021 06 13 08  21 25 42.147   -01 23 34.65  .33238 1.2082 118.1 21.3 .138  50
2021 06 13 09  21 25 50.869   -01 23 52.71  .33229 1.2082 118.1 21.3 .143  48
2021 06 13 10  21 25 59.587   -01 24 10.81  .33221 1.2082 118.1 21.3 .148  47
2021 06 13 11  21 26 08.304   -01 24 28.98  .33213 1.2082 118.1 21.3 .153  45
2021 06 13 12  21 26 17.018   -01 24 47.20  .33205 1.2082 118.1 21.3 .159  44
2021 06 13 13  21 26 25.729   -01 25 05.47  .33197 1.2082 118.1 21.3 .165  42
2021 06 13 14  21 26 34.438   -01 25 23.80  .33189 1.2082 118.1 21.3 .171  41
2021 06 13 15  21 26 43.145   -01 25 42.18  .33181 1.2081 118.1 21.3 .177  40
2021 06 13 16  21 26 51.849   -01 26 00.63  .33173 1.2081 118.2 21.3 .183  39
2021 06 13 17  21 27 00.551   -01 26 19.12  .33165 1.2081 118.2 21.3 .190  37
2021 06 13 18  21 27 09.250   -01 26 37.67  .33157 1.2081 118.2 21.3 .196  36
2021 06 13 19  21 27 17.947   -01 26 56.28  .33149 1.2081 118.2 21.3 .203  35
2021 06 13 20  21 27 26.641   -01 27 14.95  .33141 1.2081 118.2 21.3 .210  34
2021 06 13 21  21 27 35.333   -01 27 33.66  .33133 1.2080 118.2 21.3 .217  34
2021 06 13 22  21 27 44.022   -01 27 52.44  .33125 1.2080 118.2 21.3 .224  33
2021 06 13 23  21 27 52.709   -01 28 11.27  .33117 1.2080 118.2 21.3 .231  32
2021 06 14 00  21 28 01.394   -01 28 30.16  .33109 1.2080 118.2 21.3 .239  31
2021 06 14 01  21 28 10.076   -01 28 49.10  .33101 1.2080 118.2 21.3 .246  30
2021 06 14 02  21 28 18.755   -01 29 08.10  .33094 1.2080 118.2 21.3 .254  30
2021 06 14 03  21 28 27.432   -01 29 27.15  .33086 1.2080 118.2 21.3 .262  29
2021 06 14 04  21 28 36.106   -01 29 46.26  .33078 1.2080 118.3 21.3 .270  28
2021 06 14 05  21 28 44.778   -01 30 05.42  .33070 1.2079 118.3 21.3 .278  28
2021 06 14 06  21 28 53.447   -01 30 24.64  .33062 1.2079 118.3 21.3 .286  27
2021 06 14 07  21 29 02.114   -01 30 43.92  .33054 1.2079 118.3 21.3 .294  26
2021 06 14 08  21 29 10.778   -01 31 03.25  .33047 1.2079 118.3 21.3 .302  26
2021 06 14 09  21 29 19.440   -01 31 22.64  .33039 1.2079 118.3 21.3 .311  25
2021 06 14 10  21 29 28.099   -01 31 42.08  .33031 1.2079 118.3 21.3 .320  25
2021 06 14 11  21 29 36.755   -01 32 01.58  .33023 1.2079 118.3 21.3 .328  24
2021 06 14 12  21 29 45.409   -01 32 21.14  .33016 1.2078 118.3 21.3 .337  24
2021 06 14 13  21 29 54.060   -01 32 40.75  .33008 1.2078 118.3 21.3 .346  23
2021 06 14 14  21 30 02.709   -01 33 00.42  .33000 1.2078 118.3 21.3 .355  23
2021 06 14 15  21 30 11.355   -01 33 20.14  .32992 1.2078 118.3 21.3 .364  22
2021 06 14 16  21 30 19.999   -01 33 39.92  .32985 1.2078 118.4 21.3 .373  22
2021 06 14 17  21 30 28.640   -01 33 59.75  .32977 1.2078 118.4 21.3 .383  21
2021 06 14 18  21 30 37.278   -01 34 19.64  .32969 1.2078 118.4 21.3 .392  21
2021 06 14 19  21 30 45.913   -01 34 39.59  .32962 1.2078 118.4 21.3 .402  21
2021 06 14 20  21 30 54.546   -01 34 59.59  .32954 1.2078 118.4 21.3 .411  20
2021 06 14 21  21 31 03.177   -01 35 19.65  .32946 1.2077 118.4 21.3 .421  20
2021 06 14 22  21 31 11.805   -01 35 39.76  .32939 1.2077 118.4 21.3 .431  20
2021 06 14 23  21 31 20.430   -01 35 59.93  .32931 1.2077 118.4 21.3 .441  19
2021 06 15 00  21 31 29.052   -01 36 20.16  .32924 1.2077 118.4 21.3 .451  19